Location: Mount Kobau Star Party
(49.1167°N, 119.7333°W)
Time: 12:35:57
(UTC-07:00)

ARIANE 6 FM1 Upper Stage - Pass Details

Date: 11 April 2026
Orbit: 526 x 601 km, 62.0° (Epoch: 18 May)

Event Time Altitude Azimuth Distance (km) Brightness Sun altitude
Rises 01:55:05 0° 315° (NW) 2,680 6.5 -31.2°
Reaches altitude 10° 01:57:52 10° 335° (NNW) 1,780 5.7 -31.1°
Maximum altitude 02:00:39 18° 20° (NNE) 1,344 5.3 -31.0°
Drops below altitude 10° 02:03:25 10° 64° (ENE) 1,770 5.7 -30.8°
Sets 02:06:11 0° 84° (E) 2,659 6.4 -30.7°
